TimeEST,TemperatureF,Dew PointF,Humidity,Sea Level PressureIn,VisibilityMPH,Wind Direction,Wind SpeedMPH,Gust SpeedMPH,PrecipitationIn,Events,Conditions,WindDirDegrees,DateUTC
12:53 AM,41.0,39.0,93,29.84,4.0,SE,12.7,19.6,0.14,Rain,Rain,130,2012-12-29 05:53:00
1:23 AM,39.2,39.2,100,29.82,9.0,Variable,5.8,-,0.05,,Overcast,0,2012-12-29 06:23:00
1:53 AM,39.9,39.0,97,29.80,8.0,East,5.8,-,0.06,Rain,Light Rain,100,2012-12-29 06:53:00
2:25 AM,39.2,39.2,100,29.82,3.0,Calm,Calm,-,0.01,,Overcast,0,2012-12-29 07:25:00
2:53 AM,39.9,39.0,97,29.81,5.0,ENE,4.6,-,0.01,,Overcast,60,2012-12-29 07:53:00
3:43 AM,39.2,39.2,100,29.83,2.5,Calm,Calm,-,N/A,,Overcast,0,2012-12-29 08:43:00
3:50 AM,39.2,39.2,100,29.83,4.0,Calm,Calm,-,N/A,,Overcast,0,2012-12-29 08:50:00
3:53 AM,39.9,39.9,100,29.83,4.0,Calm,Calm,-,N/A,,Overcast,0,2012-12-29 08:53:00
4:08 AM,39.2,39.2,100,29.85,2.0,Calm,Calm,-,0.01,,Overcast,0,2012-12-29 09:08:00
4:33 AM,39.2,39.2,100,29.85,2.5,Calm,Calm,-,0.02,,Overcast,0,2012-12-29 09:33:00
4:53 AM,39.9,39.9,100,29.84,2.5,Calm,Calm,-,0.02,,Overcast,0,2012-12-29 09:53:00
5:02 AM,39.2,39.2,100,29.85,3.0,Calm,Calm,-,N/A,,Overcast,0,2012-12-29 10:02:00
5:53 AM,39.9,39.9,100,29.83,5.0,Calm,Calm,-,0.01,,Overcast,0,2012-12-29 10:53:00
6:53 AM,41.0,41.0,100,29.87,4.0,Calm,Calm,-,N/A,,Overcast,0,2012-12-29 11:53:00
7:14 AM,39.2,39.2,100,29.88,4.0,Calm,Calm,-,N/A,,Overcast,0,2012-12-29 12:14:00
7:37 AM,41.0,39.2,93,29.89,5.0,Calm,Calm,-,N/A,,Overcast,0,2012-12-29 12:37:00
7:45 AM,41.0,39.2,93,29.90,5.0,Calm,Calm,-,N/A,,Overcast,0,2012-12-29 12:45:00
7:53 AM,41.0,39.9,96,29.90,6.0,Calm,Calm,-,N/A,,Overcast,0,2012-12-29 12:53:00
8:04 AM,41.0,41.0,100,29.91,8.0,Calm,Calm,-,N/A,,Overcast,0,2012-12-29 13:04:00
8:53 AM,39.9,39.0,97,29.92,10.0,Calm,Calm,-,N/A,,Overcast,0,2012-12-29 13:53:00
9:29 AM,39.2,37.4,93,29.95,10.0,Variable,3.5,-,N/A,,Overcast,0,2012-12-29 14:29:00
9:43 AM,39.2,37.4,93,29.96,10.0,Variable,3.5,-,N/A,,Overcast,0,2012-12-29 14:43:00
9:53 AM,41.0,37.0,86,29.96,10.0,Variable,3.5,-,N/A,,Overcast,0,2012-12-29 14:53:00
10:25 AM,39.2,37.4,93,29.98,10.0,Variable,4.6,-,N/A,,Overcast,0,2012-12-29 15:25:00
10:53 AM,39.9,37.0,89,29.99,5.0,Calm,Calm,-,0.00,Rain,Light Rain,0,2012-12-29 15:53:00
11:12 AM,39.2,37.4,93,29.99,10.0,Variable,3.5,-,0.00,,Overcast,0,2012-12-29 16:12:00
11:19 AM,41.0,37.4,87,30.00,10.0,Calm,Calm,-,0.00,,Overcast,0,2012-12-29 16:19:00
11:53 AM,39.9,36.0,86,29.99,10.0,Variable,3.5,-,0.00,,Overcast,0,2012-12-29 16:53:00
12:07 PM,39.2,35.6,87,30.00,10.0,Variable,4.6,-,N/A,,Overcast,0,2012-12-29 17:07:00
12:38 PM,39.2,35.6,87,30.00,10.0,Variable,3.5,-,N/A,,Overcast,0,2012-12-29 17:38:00
12:53 PM,37.9,35.1,89,30.00,9.0,Calm,Calm,-,N/A,,Overcast,0,2012-12-29 17:53:00
1:38 PM,39.2,33.8,81,30.00,10.0,Variable,3.5,-,N/A,,Overcast,0,2012-12-29 18:38:00
1:53 PM,39.0,34.0,82,30.00,10.0,Variable,3.5,-,N/A,,Overcast,0,2012-12-29 18:53:00
2:28 PM,37.4,33.8,87,30.01,5.0,Variable,4.6,-,0.00,Rain,Light Rain,0,2012-12-29 19:28:00
2:53 PM,37.9,35.1,89,30.02,10.0,Variable,3.5,-,0.00,,Overcast,0,2012-12-29 19:53:00
3:53 PM,36.0,30.9,82,30.06,10.0,Variable,4.6,-,N/A,,Overcast,0,2012-12-29 20:53:00
4:17 PM,37.4,30.2,75,30.07,10.0,Variable,3.5,-,N/A,,Overcast,0,2012-12-29 21:17:00
4:53 PM,37.0,30.0,76,30.09,10.0,Variable,3.5,-,N/A,,Overcast,0,2012-12-29 21:53:00
5:53 PM,36.0,30.0,79,30.12,10.0,Calm,Calm,-,N/A,,Overcast,0,2012-12-29 22:53:00
6:53 PM,36.0,30.0,79,30.14,10.0,Variable,3.5,-,N/A,,Overcast,0,2012-12-29 23:53:00
7:03 PM,35.6,30.2,81,30.15,10.0,Variable,3.5,-,N/A,,Overcast,0,2012-12-30 00:03:00
7:53 PM,36.0,30.0,79,30.17,10.0,Variable,3.5,-,N/A,,Overcast,0,2012-12-30 00:53:00
8:53 PM,36.0,30.0,79,30.19,10.0,Variable,3.5,-,N/A,,Overcast,0,2012-12-30 01:53:00
9:53 PM,36.0,28.9,76,30.23,10.0,Calm,Calm,-,N/A,,Overcast,0,2012-12-30 02:53:00
10:53 PM,35.1,28.0,76,30.25,10.0,Variable,3.5,-,N/A,,Overcast,0,2012-12-30 03:53:00
11:15 PM,35.6,28.4,75,30.26,10.0,Variable,4.6,-,N/A,,Overcast,0,2012-12-30 04:15:00
11:53 PM,35.1,28.0,76,30.27,10.0,Variable,4.6,-,N/A,,Overcast,0,2012-12-30 04:53:00